Simultaneous Nadir Overpasses (SNOs) Predictions

Prediction of SNOs between METOP-C and LANDSAT-8 Satellite Orbit:

Table of predicted SNOs for the next 14.0 days since TLE Epoch: 7/17/2021
Index Date (METOP-C) Time (METOP-C) Lat,Lon (METOP-C) SZA (METOP-C ) Date (LANDSAT-8) Time (LANDSAT-8) Lat,Lon (LANDSAT-8) SZA (LANDSAT-8 ) Distance(km) Time Diff (sec)
1 07/19/2021 22:39:42 81.17,-118.97 62.60 07/19/2021 22:39:49 81.17,-119.14 62.58 2.80 7
2 07/19/2021 23:30:22 -81.19, 48.78 117.35 07/19/2021 23:29:15 -81.19, 48.82 117.37 0.68 67
3 07/22/2021 18:14:03 81.18, -52.56 63.14 07/22/2021 18:14:06 81.17, -52.74 63.12 3.24 3
4 07/22/2021 19:04:43 -81.19, 115.17 116.81 07/22/2021 19:03:32 -81.19, 115.24 116.83 1.24 71
5 07/25/2021 12:57:46 -81.14,-154.45 116.41 07/25/2021 12:58:58 -81.14,-154.41 116.37 0.79 72
6 07/25/2021 13:48:25 81.16, 13.47 63.68 07/25/2021 13:48:23 81.16, 13.63 63.70 2.79 2
7 07/25/2021 14:38:40 -81.35,-169.12 115.08 07/25/2021 14:37:26 -81.60,-169.42 115.00 28.06 74
8 07/28/2021 08:32:05 -81.15, -87.70 115.73 07/28/2021 08:33:13 -81.16, -87.66 115.69 0.97 68
9 07/28/2021 09:22:44 81.17, 80.24 64.36 07/28/2021 09:22:38 81.18, 80.35 64.37 2.11 6



Historial Predications of SNOs between METOP-C and LANDSAT-8
